C/2019 K8 ( ATLAS )

Japanese version
Home page
Updated on September 17, 2019

---------------------------------------------------------------------

* Profile

Discovery Date May 27, 2019
Magnitude 17.9 mag
Discoverer Asteroid Terrestrial-Impact Last Alert System (ATLAS) search program

* Pictures

* Orbital Elements

Epoch 2019 July 16.0 TT = JDT 2458680.5
T 2019 July 21.21301 TT                                 Williams
q   3.1950680            (2000.0)            P               Q
z  +0.0006908      Peri.   85.35142     -0.02318120     -0.36220227
 +/-0.0000167      Node   291.04691     -0.48369758     +0.81976965
e   0.9977928      Incl.   93.22225     +0.87492816     +0.44360707
From 440 observations 2019 May 27-Aug. 19, mean residual 0".5.

* Magnitudes Graph

        m1 = 10.5 + 5 log d + 10.0 log r

---------------------------------------------------------------------

The orbital elements are published on M.P.E.C. 2019-Q135.
The magnitudes graphs are made with Comet for Windows.

---------------------------------------------------------------------

Copyright(C) Seiichi Yoshida (comet@aerith.net). All rights reserved.